Time,TemperatureF,DewpointF,PressureIn,WindDirection,WindDirectionDegrees,WindSpeedMPH,WindSpeedGustMPH,Humidity,HourlyPrecipIn,Conditions,Clouds,dailyrainin,SoftwareType,DateUTC
2013-10-06 16:50:00,84.6,19.5,29.79,SW,233,4.0,5.0,9,0.00,,,0.00,Wunderground v.1.15,2013-10-06 23:50:00,
2013-10-06 18:10:00,80.1,18.6,29.79,WSW,242,2.0,2.0,10,0.00,,,0.00,Wunderground v.1.15,2013-10-07 01:10:00,
2013-10-06 18:15:00,79.6,18.2,29.79,NNW,342,2.0,2.0,10,0.00,,,0.00,Wunderground v.1.15,2013-10-07 01:15:00,
2013-10-06 18:25:00,79.2,17.9,29.79,NW,314,3.0,4.0,10,0.00,,,0.00,Wunderground v.1.15,2013-10-07 01:25:00,
2013-10-06 18:30:00,79.0,20.0,29.79,NW,320,3.0,3.0,11,0.00,,,0.00,Wunderground v.1.15,2013-10-07 01:30:00,
2013-10-06 18:35:00,78.8,19.8,29.79,NNW,339,4.0,6.0,11,0.00,,,0.00,Wunderground v.1.15,2013-10-07 01:35:00,
2013-10-06 18:40:00,79.1,17.8,29.79,NW,323,6.0,6.0,10,0.00,,,0.00,Wunderground v.1.15,2013-10-07 01:40:00,
2013-10-06 18:45:00,79.2,17.9,29.79,NW,323,7.0,7.0,10,0.00,,,0.00,Wunderground v.1.15,2013-10-07 01:45:00,
2013-10-06 18:50:00,79.2,17.9,29.79,NW,321,7.0,7.0,10,0.00,,,0.00,Wunderground v.1.15,2013-10-07 01:50:00,
2013-10-06 18:55:00,79.3,18.0,29.79,NW,321,7.0,8.0,10,0.00,,,0.00,Wunderground v.1.15,2013-10-07 01:55:00,
2013-10-06 19:05:00,78.6,19.7,29.79,NW,326,7.0,9.0,11,0.00,,,0.00,Wunderground v.1.15,2013-10-07 02:05:00,
2013-10-06 19:15:00,77.5,18.8,29.79,NNW,340,7.0,9.0,11,0.00,,,0.00,Wunderground v.1.15,2013-10-07 02:15:00,
2013-10-06 19:20:00,77.5,18.8,29.78,NW,321,8.0,8.0,11,0.00,,,0.00,Wunderground v.1.15,2013-10-07 02:20:00,
2013-10-06 19:25:00,77.5,18.8,29.79,NNW,338,8.0,8.0,11,0.00,,,0.00,Wunderground v.1.15,2013-10-07 02:25:00,
2013-10-06 19:30:00,77.6,18.9,29.79,NNW,338,7.0,8.0,11,0.00,,,0.00,Wunderground v.1.15,2013-10-07 02:30:00,
2013-10-06 19:35:00,77.5,18.8,29.79,NNW,328,7.0,8.0,11,0.00,,,0.00,Wunderground v.1.15,2013-10-07 02:35:00,
2013-10-06 19:45:00,77.5,18.8,29.79,North,8,7.0,7.0,11,0.00,,,0.00,Wunderground v.1.15,2013-10-07 02:45:00,
2013-10-06 19:50:00,77.5,18.8,29.79,North,353,7.0,7.0,11,0.00,,,0.00,Wunderground v.1.15,2013-10-07 02:50:00,
2013-10-06 19:55:00,77.4,18.7,29.79,North,6,8.0,9.0,11,0.00,,,0.00,Wunderground v.1.15,2013-10-07 02:55:00,
2013-10-06 20:00:00,77.5,18.8,29.79,NNW,348,8.0,8.0,11,0.00,,,0.00,Wunderground v.1.15,2013-10-07 03:00:00,
2013-10-06 20:10:00,77.4,16.5,29.79,NNW,332,9.0,9.0,10,0.00,,,0.00,Wunderground v.1.15,2013-10-07 03:10:00,
2013-10-06 20:20:00,77.2,16.4,29.79,NNW,347,9.0,9.0,10,0.00,,,0.00,Wunderground v.1.15,2013-10-07 03:20:00,
2013-10-06 20:25:00,77.4,16.5,29.79,North,350,9.0,11.0,10,0.00,,,0.00,Wunderground v.1.15,2013-10-07 03:25:00,
2013-10-06 20:30:00,77.5,16.6,29.79,North,1,9.0,10.0,10,0.00,,,0.00,Wunderground v.1.15,2013-10-07 03:30:00,
2013-10-06 20:40:00,77.0,16.2,29.79,North,352,8.0,8.0,10,0.00,,,0.00,Wunderground v.1.15,2013-10-07 03:40:00,
2013-10-06 20:45:00,76.7,16.0,29.79,NW,321,8.0,8.0,10,0.00,,,0.00,Wunderground v.1.15,2013-10-07 03:45:00,
2013-10-06 20:55:00,76.2,15.6,29.80,NNW,343,6.0,7.0,10,0.00,,,0.00,Wunderground v.1.15,2013-10-07 03:55:00,
2013-10-06 21:05:00,77.0,16.2,29.80,NNW,340,6.0,6.0,10,0.00,,,0.00,Wunderground v.1.15,2013-10-07 04:05:00,
2013-10-06 21:10:00,77.1,16.3,29.80,NNW,334,5.0,5.0,10,0.00,,,0.00,Wunderground v.1.15,2013-10-07 04:10:00,
2013-10-06 21:15:00,77.2,16.4,29.80,NNW,328,5.0,5.0,10,0.00,,,0.00,Wunderground v.1.15,2013-10-07 04:15:00,
2013-10-06 21:25:00,76.0,17.6,29.80,NNW,335,5.0,5.0,11,0.00,,,0.00,Wunderground v.1.15,2013-10-07 04:25:00,
2013-10-06 21:30:00,74.8,16.7,29.80,NW,315,5.0,5.0,11,0.00,,,0.00,Wunderground v.1.15,2013-10-07 04:30:00,
2013-10-06 21:35:00,74.6,18.6,29.80,WNW,288,4.0,6.0,12,0.00,,,0.00,Wunderground v.1.15,2013-10-07 04:35:00,
2013-10-06 21:45:00,74.8,16.7,29.80,SW,224,5.0,6.0,11,0.00,,,0.00,Wunderground v.1.15,2013-10-07 04:45:00,
2013-10-06 21:50:00,74.6,18.6,29.80,WNW,295,4.0,5.0,12,0.00,,,0.00,Wunderground v.1.15,2013-10-07 04:50:00,
2013-10-06 22:00:00,73.6,17.8,29.80,NNW,330,4.0,4.0,12,0.00,,,0.00,Wunderground v.1.15,2013-10-07 05:00:00,
2013-10-06 22:05:00,74.0,18.1,29.80,WNW,298,4.0,5.0,12,0.00,,,0.00,Wunderground v.1.15,2013-10-07 05:05:00,
2013-10-06 22:10:00,74.4,18.4,29.80,WNW,297,5.0,6.0,12,0.00,,,0.00,Wunderground v.1.15,2013-10-07 05:10:00,
2013-10-06 22:15:00,74.3,18.4,29.80,NW,306,5.0,6.0,12,0.00,,,0.00,Wunderground v.1.15,2013-10-07 05:15:00,
2013-10-06 22:20:00,73.5,17.7,29.80,WNW,300,4.0,4.0,12,0.00,,,0.00,Wunderground v.1.15,2013-10-07 05:20:00,
2013-10-06 22:25:00,73.7,17.9,29.80,WNW,298,2.0,4.0,12,0.00,,,0.00,Wunderground v.1.15,2013-10-07 05:25:00,
2013-10-06 22:30:00,73.7,17.9,29.80,WNW,288,2.0,2.0,12,0.00,,,0.00,Wunderground v.1.15,2013-10-07 05:30:00,
2013-10-06 22:35:00,73.3,17.6,29.80,West,276,2.0,2.0,12,0.00,,,0.00,Wunderground v.1.15,2013-10-07 05:35:00,
2013-10-06 22:40:00,73.6,17.8,29.80,WNW,282,1.0,1.0,12,0.00,,,0.00,Wunderground v.1.15,2013-10-07 05:40:00,
2013-10-06 22:50:00,73.9,18.0,29.80,WNW,291,3.0,3.0,12,0.00,,,0.00,Wunderground v.1.15,2013-10-07 05:50:00,
2013-10-06 22:55:00,74.4,18.4,29.80,WNW,294,4.0,4.0,12,0.00,,,0.00,Wunderground v.1.15,2013-10-07 05:55:00,
2013-10-06 23:01:00,74.7,18.7,29.80,WNW,297,3.0,4.0,12,0.00,,,0.00,Wunderground v.1.15,2013-10-07 06:01:00,
2013-10-06 23:10:00,74.4,18.4,29.80,WNW,297,3.0,3.0,12,0.00,,,0.00,Wunderground v.1.15,2013-10-07 06:10:00,
2013-10-06 23:20:00,74.1,18.2,29.80,WNW,301,3.0,3.0,12,0.00,,,0.00,Wunderground v.1.15,2013-10-07 06:20:00,
2013-10-06 23:30:00,73.1,17.4,29.80,NW,315,2.0,2.0,12,0.00,,,0.00,Wunderground v.1.15,2013-10-07 06:30:00,
2013-10-06 23:40:00,72.8,17.2,29.80,NW,323,2.0,2.0,12,0.00,,,0.00,Wunderground v.1.15,2013-10-07 06:40:00,
2013-10-06 23:45:00,72.8,17.2,29.80,NW,320,2.0,2.0,12,0.00,,,0.00,Wunderground v.1.15,2013-10-07 06:45:00,
2013-10-06 23:50:00,72.8,17.2,29.80,NNW,338,2.0,2.0,12,0.00,,,0.00,Wunderground v.1.15,2013-10-07 06:50:00,
2013-10-06 23:55:00,72.6,17.0,29.80,NNW,327,2.0,2.0,12,0.00,,,0.00,Wunderground v.1.15,2013-10-07 06:55:00,